TimeCST,TemperatureF,Dew PointF,Humidity,Sea Level PressureIn,VisibilityMPH,Wind Direction,Wind SpeedMPH,Gust SpeedMPH,PrecipitationIn,Events,Conditions,WindDirDegrees,DateUTC
12:04 AM,-2.2,-5.8,85,30.45,10.0,SSE,3.5,-,N/A,Snow,Light Snow,160,2012-12-26 06:04:00
12:11 AM,-2.2,-5.8,85,30.45,9.0,Calm,Calm,-,N/A,Snow,Light Snow,0,2012-12-26 06:11:00
12:15 AM,-2.2,-5.8,85,30.45,8.0,Calm,Calm,-,N/A,,Overcast,0,2012-12-26 06:15:00
12:23 AM,-2.2,-5.8,85,30.45,7.0,Calm,Calm,-,N/A,,Overcast,0,2012-12-26 06:23:00
12:34 AM,-2.2,-5.8,85,30.44,9.0,SSE,3.5,-,N/A,,Overcast,150,2012-12-26 06:34:00
12:55 AM,-5.8,-9.8,83,30.43,10.0,Calm,Calm,-,0.00,,Overcast,0,2012-12-26 06:55:00
1:06 AM,-5.8,-9.4,84,30.43,10.0,Calm,Calm,-,N/A,,Overcast,0,2012-12-26 07:06:00
1:18 AM,-5.8,-9.4,84,30.43,10.0,Calm,Calm,-,N/A,,Overcast,0,2012-12-26 07:18:00
1:21 AM,-5.8,-11.2,77,30.43,10.0,Calm,Calm,-,N/A,,Overcast,0,2012-12-26 07:21:00
1:25 AM,-7.6,-11.2,84,30.42,2.5,North,3.5,-,N/A,,Haze,360,2012-12-26 07:25:00
1:27 AM,-7.6,-13.0,77,30.42,1.8,North,3.5,-,N/A,,Haze,10,2012-12-26 07:27:00
1:29 AM,-7.6,-13.0,77,30.42,1.2,North,3.5,-,N/A,,Haze,10,2012-12-26 07:29:00
1:30 AM,-7.6,-11.2,84,30.42,1.2,North,3.5,-,N/A,,Haze,360,2012-12-26 07:30:00
1:31 AM,-7.6,-11.2,84,30.42,1.2,North,3.5,-,N/A,,Haze,360,2012-12-26 07:31:00
1:33 AM,-7.6,-11.2,84,30.42,1.2,North,4.6,-,N/A,,Haze,10,2012-12-26 07:33:00
1:34 AM,-7.6,-11.2,84,30.42,1.5,North,4.6,-,N/A,,Haze,10,2012-12-26 07:34:00
1:37 AM,-7.6,-13.0,77,30.42,2.0,North,5.8,-,N/A,,Haze,10,2012-12-26 07:37:00
1:40 AM,-9.4,-14.8,77,30.42,2.5,North,6.9,-,N/A,,Haze,10,2012-12-26 07:40:00
1:41 AM,-9.4,-14.8,77,30.42,3.0,North,6.9,-,N/A,,Haze,10,2012-12-26 07:41:00
1:42 AM,-9.4,-14.8,77,30.42,3.0,North,6.9,-,N/A,,Haze,10,2012-12-26 07:42:00
1:55 AM,-6.5,-10.8,82,30.42,3.0,North,9.2,-,N/A,,Haze,10,2012-12-26 07:55:00
1:56 AM,-7.6,-11.2,84,30.42,2.5,North,9.2,-,N/A,,Haze,360,2012-12-26 07:56:00
1:59 AM,-7.6,-11.2,84,30.41,1.8,North,8.1,-,N/A,,Haze,10,2012-12-26 07:59:00
2:02 AM,-7.6,-11.2,84,30.41,1.5,North,9.2,-,N/A,,Haze,10,2012-12-26 08:02:00
2:03 AM,-7.6,-11.2,84,30.41,1.8,North,8.1,-,N/A,,Haze,360,2012-12-26 08:03:00
2:04 AM,-7.6,-11.2,84,30.41,2.0,North,8.1,-,N/A,,Haze,360,2012-12-26 08:04:00
2:06 AM,-7.6,-11.2,84,30.41,3.0,North,8.1,-,N/A,,Haze,10,2012-12-26 08:06:00
2:10 AM,-7.6,-11.2,84,30.41,8.0,NNE,5.8,-,N/A,,Overcast,20,2012-12-26 08:10:00
2:16 AM,-7.6,-11.2,84,30.41,10.0,NNE,5.8,-,N/A,,Overcast,20,2012-12-26 08:16:00
2:23 AM,-7.6,-11.2,84,30.40,5.0,North,5.8,-,N/A,,Haze,360,2012-12-26 08:23:00
2:27 AM,-7.6,-13.0,77,30.40,2.5,North,6.9,-,N/A,,Haze,360,2012-12-26 08:27:00
2:28 AM,-7.6,-13.0,77,30.41,2.5,North,6.9,-,N/A,,Haze,360,2012-12-26 08:28:00
2:31 AM,-7.6,-13.0,77,30.41,2.5,North,5.8,-,N/A,,Haze,350,2012-12-26 08:31:00
2:33 AM,-7.6,-13.0,77,30.40,1.8,North,6.9,-,N/A,,Haze,350,2012-12-26 08:33:00
2:34 AM,-7.6,-13.0,77,30.40,2.0,North,6.9,-,N/A,,Haze,360,2012-12-26 08:34:00
2:36 AM,-7.6,-11.2,84,30.41,2.5,North,6.9,-,N/A,,Haze,360,2012-12-26 08:36:00
2:38 AM,-7.6,-13.0,77,30.40,3.0,North,6.9,-,N/A,,Haze,10,2012-12-26 08:38:00
2:55 AM,-8.9,-13.5,80,30.40,5.0,North,5.8,-,N/A,,Haze,10,2012-12-26 08:55:00
3:55 AM,-17.7,-22.9,77,30.41,10.0,NNW,4.6,-,N/A,,Clear,330,2012-12-26 09:55:00
4:55 AM,-20.6,-25.8,77,30.40,10.0,Calm,Calm,-,N/A,,Clear,0,2012-12-26 10:55:00
5:55 AM,-22.5,-28.3,75,30.40,10.0,NW,3.5,-,N/A,,Scattered Clouds,320,2012-12-26 11:55:00
5:56 AM,-22.0,-29.2,69,30.40,10.0,NW,3.5,-,N/A,,Mostly Cloudy,320,2012-12-26 11:56:00
6:55 AM,-19.1,-24.3,77,30.39,10.0,Calm,Calm,-,N/A,,Overcast,0,2012-12-26 12:55:00
7:05 AM,-16.6,-22.0,76,30.39,10.0,Calm,Calm,-,N/A,,Overcast,0,2012-12-26 13:05:00
7:55 AM,-11.6,-16.2,80,30.38,10.0,Calm,Calm,-,N/A,,Overcast,0,2012-12-26 13:55:00
8:41 AM,-7.6,-13.0,77,30.38,2.0,Calm,Calm,-,N/A,,Haze,0,2012-12-26 14:41:00
8:42 AM,-7.6,-13.0,77,30.38,1.8,Calm,Calm,-,N/A,,Haze,0,2012-12-26 14:42:00
8:44 AM,-7.6,-13.0,77,30.38,1.2,Calm,Calm,-,N/A,,Haze,0,2012-12-26 14:44:00
8:46 AM,-7.6,-13.0,77,30.37,1.0,Calm,Calm,-,N/A,,Haze,0,2012-12-26 14:46:00
8:50 AM,-7.6,-13.0,77,30.37,1.2,Calm,Calm,-,N/A,,Haze,0,2012-12-26 14:50:00
8:52 AM,-7.6,-13.0,77,30.37,1.5,Calm,Calm,-,N/A,,Haze,0,2012-12-26 14:52:00
8:54 AM,-7.6,-13.0,77,30.37,2.0,Calm,Calm,-,N/A,,Haze,0,2012-12-26 14:54:00
8:55 AM,-8.3,-12.8,81,30.37,2.5,Calm,Calm,-,N/A,,Haze,0,2012-12-26 14:55:00
8:56 AM,-7.6,-13.0,77,30.37,3.0,Calm,Calm,-,N/A,,Haze,0,2012-12-26 14:56:00
8:57 AM,-7.6,-13.0,77,30.37,4.0,Calm,Calm,-,N/A,,Haze,0,2012-12-26 14:57:00
9:02 AM,-7.6,-13.0,77,30.38,2.5,Calm,Calm,-,N/A,,Haze,0,2012-12-26 15:02:00
9:04 AM,-7.6,-13.0,77,30.38,1.8,Calm,Calm,-,N/A,,Haze,0,2012-12-26 15:04:00
9:06 AM,-7.6,-13.0,77,30.38,1.2,Calm,Calm,-,N/A,,Haze,0,2012-12-26 15:06:00
9:08 AM,-7.6,-13.0,77,30.38,1.0,Calm,Calm,-,N/A,,Haze,0,2012-12-26 15:08:00
9:11 AM,-7.6,-11.2,84,30.38,1.0,Calm,Calm,-,N/A,,Haze,0,2012-12-26 15:11:00
9:15 AM,-7.6,-11.2,84,30.38,0.8,Calm,Calm,-,N/A,,Haze,0,2012-12-26 15:15:00
9:16 AM,-7.6,-11.2,84,30.38,0.8,Calm,Calm,-,N/A,,Haze,0,2012-12-26 15:16:00
9:19 AM,-7.6,-11.2,84,30.38,0.8,Calm,Calm,-,N/A,,Haze,0,2012-12-26 15:19:00
9:22 AM,-7.6,-11.2,84,30.38,1.0,Calm,Calm,-,N/A,Snow,Light Snow,0,2012-12-26 15:22:00
9:25 AM,-7.6,-11.2,84,30.38,1.2,Calm,Calm,-,N/A,Snow,Light Snow,0,2012-12-26 15:25:00
9:27 AM,-7.6,-11.2,84,30.38,1.5,Calm,Calm,-,N/A,Snow,Light Snow,0,2012-12-26 15:27:00
9:29 AM,-7.6,-11.2,84,30.38,2.0,Calm,Calm,-,N/A,Snow,Light Snow,0,2012-12-26 15:29:00
9:30 AM,-7.6,-11.2,84,30.38,2.0,Calm,Calm,-,N/A,Snow,Light Snow,0,2012-12-26 15:30:00
9:35 AM,-7.6,-11.2,84,30.38,3.0,Calm,Calm,-,N/A,Snow,Light Snow,0,2012-12-26 15:35:00
9:40 AM,-7.6,-11.2,84,30.38,2.5,Calm,Calm,-,N/A,Snow,Light Snow,0,2012-12-26 15:40:00
9:50 AM,-7.6,-11.2,84,30.38,2.0,Calm,Calm,-,N/A,Snow,Light Snow,0,2012-12-26 15:50:00
9:55 AM,-7.1,-11.4,81,30.38,2.5,Calm,Calm,-,0.00,Snow,Light Snow,0,2012-12-26 15:55:00
10:02 AM,-7.6,-11.2,84,30.38,3.0,NNE,3.5,-,N/A,Snow,Light Snow,20,2012-12-26 16:02:00
10:04 AM,-7.6,-11.2,84,30.38,2.5,Calm,Calm,-,N/A,Snow,Light Snow,0,2012-12-26 16:04:00
10:20 AM,-5.8,-11.2,77,30.38,3.0,NE,3.5,-,N/A,Snow,Light Snow,40,2012-12-26 16:20:00
10:32 AM,-7.6,-11.2,84,30.38,3.0,NE,4.6,-,N/A,Snow,Light Snow,50,2012-12-26 16:32:00
10:55 AM,-7.2,-11.6,81,30.37,5.0,NE,3.5,-,0.00,Snow,Light Snow,50,2012-12-26 16:55:00
11:37 AM,-7.6,-11.2,84,30.36,6.0,NE,4.6,-,N/A,,Haze,40,2012-12-26 17:37:00
11:55 AM,-6.9,-11.2,81,30.35,4.0,NNE,3.5,-,0.00,,Haze,30,2012-12-26 17:55:00
12:32 PM,-7.6,-11.2,84,30.34,10.0,Calm,Calm,-,N/A,,Overcast,0,2012-12-26 18:32:00
12:54 PM,-7.6,-11.2,84,30.34,10.0,NNE,3.5,-,N/A,,Overcast,20,2012-12-26 18:54:00
12:55 PM,-7.1,-11.4,81,30.34,10.0,NNE,3.5,-,N/A,,Overcast,20,2012-12-26 18:55:00
1:04 PM,-7.6,-11.2,84,30.33,10.0,NNE,3.5,-,N/A,,Overcast,30,2012-12-26 19:04:00
1:08 PM,-5.8,-11.2,77,30.32,10.0,NNE,4.6,-,N/A,,Overcast,30,2012-12-26 19:08:00
1:20 PM,-5.8,-11.2,77,30.32,10.0,North,5.8,-,N/A,,Overcast,10,2012-12-26 19:20:00
1:55 PM,-7.8,-12.1,81,30.31,10.0,NNE,4.6,-,0.00,,Overcast,20,2012-12-26 19:55:00
2:55 PM,-7.8,-12.5,80,30.30,10.0,NNE,4.6,-,N/A,,Overcast,20,2012-12-26 20:55:00
3:54 PM,-7.6,-13.0,77,30.31,10.0,NE,3.5,-,N/A,,Overcast,40,2012-12-26 21:54:00
3:55 PM,-8.3,-13.2,79,30.31,10.0,NE,3.5,-,0.00,,Overcast,40,2012-12-26 21:55:00
4:08 PM,-7.6,-13.0,77,30.31,8.0,Calm,Calm,-,N/A,,Overcast,0,2012-12-26 22:08:00
4:55 PM,-8.7,-13.5,79,30.32,10.0,North,3.5,-,N/A,,Overcast,10,2012-12-26 22:55:00
5:33 PM,-9.4,-14.8,77,30.32,10.0,North,4.6,-,N/A,,Overcast,10,2012-12-26 23:33:00
5:35 PM,-9.4,-14.8,77,30.32,10.0,North,4.6,-,N/A,,Overcast,360,2012-12-26 23:35:00
5:40 PM,-9.4,-14.8,77,30.32,10.0,North,5.8,-,N/A,,Overcast,350,2012-12-26 23:40:00
5:45 PM,-9.4,-14.8,77,30.33,10.0,North,5.8,-,N/A,,Overcast,350,2012-12-26 23:45:00
5:47 PM,-9.4,-14.8,77,30.33,10.0,NNW,4.6,-,N/A,,Overcast,340,2012-12-26 23:47:00
5:54 PM,-9.4,-14.8,77,30.33,10.0,NNW,5.8,-,N/A,,Overcast,340,2012-12-26 23:54:00
5:55 PM,-10.1,-14.8,80,30.33,10.0,NNW,5.8,-,N/A,,Overcast,340,2012-12-26 23:55:00
6:04 PM,-11.2,-14.8,84,30.33,10.0,NNW,4.6,-,N/A,,Overcast,340,2012-12-27 00:04:00
6:10 PM,-11.2,-14.8,84,30.33,10.0,NNW,4.6,-,N/A,,Overcast,340,2012-12-27 00:10:00
6:20 PM,-11.2,-16.6,77,30.33,10.0,North,4.6,-,N/A,,Overcast,350,2012-12-27 00:20:00
6:26 PM,-11.2,-16.6,77,30.33,10.0,North,4.6,-,N/A,,Overcast,350,2012-12-27 00:26:00
6:27 PM,-11.2,-16.6,77,30.33,10.0,North,4.6,-,N/A,,Overcast,350,2012-12-27 00:27:00
6:28 PM,-11.2,-16.6,77,30.33,10.0,North,4.6,-,N/A,,Overcast,350,2012-12-27 00:28:00
6:29 PM,-11.2,-16.6,77,30.33,10.0,North,4.6,-,N/A,,Overcast,350,2012-12-27 00:29:00
6:34 PM,-11.2,-16.6,77,30.33,10.0,North,4.6,-,N/A,,Overcast,350,2012-12-27 00:34:00
6:36 PM,-11.2,-16.6,77,30.32,10.0,North,4.6,-,N/A,,Overcast,350,2012-12-27 00:36:00
6:47 PM,-11.2,-14.8,84,30.33,10.0,NNW,4.6,-,N/A,Snow,Light Snow,330,2012-12-27 00:47:00
6:53 PM,-11.2,-14.8,84,30.33,10.0,NNW,4.6,-,N/A,Snow,Light Snow,330,2012-12-27 00:53:00
6:55 PM,-10.8,-15.5,80,30.33,10.0,NW,4.6,-,0.00,Snow,Light Snow,320,2012-12-27 00:55:00
6:57 PM,-11.2,-14.8,84,30.33,10.0,NNW,4.6,-,N/A,Snow,Light Snow,330,2012-12-27 00:57:00
7:05 PM,-11.2,-14.8,84,30.32,10.0,NNW,4.6,-,N/A,,Overcast,340,2012-12-27 01:05:00
7:17 PM,-11.2,-14.8,84,30.31,10.0,North,5.8,-,N/A,Snow,Light Snow,350,2012-12-27 01:17:00
7:50 PM,-9.4,-14.8,77,30.31,8.0,NNW,3.5,-,N/A,Snow,Light Snow,340,2012-12-27 01:50:00
7:55 PM,-9.6,-14.3,80,30.31,8.0,NNW,3.5,-,0.00,Snow,Light Snow,340,2012-12-27 01:55:00
8:00 PM,-9.4,-14.8,77,30.30,8.0,North,3.5,-,N/A,Snow,Light Snow,350,2012-12-27 02:00:00
8:18 PM,-9.4,-14.8,77,30.30,9.0,NNW,3.5,-,N/A,,Overcast,340,2012-12-27 02:18:00
8:23 PM,-9.4,-14.8,77,30.30,9.0,North,3.5,-,N/A,,Overcast,350,2012-12-27 02:23:00
8:55 PM,-9.2,-13.7,81,30.29,10.0,North,3.5,-,0.00,,Overcast,350,2012-12-27 02:55:00
9:16 PM,-9.4,-13.0,84,30.29,10.0,NNW,3.5,-,N/A,,Overcast,330,2012-12-27 03:16:00
9:28 PM,-7.6,-13.0,77,30.28,10.0,NNW,3.5,-,N/A,,Overcast,340,2012-12-27 03:28:00
9:39 PM,-7.6,-13.0,77,30.29,10.0,NNW,5.8,-,N/A,,Overcast,340,2012-12-27 03:39:00
9:55 PM,-7.6,-12.3,80,30.28,10.0,NNW,3.5,-,0.00,Snow,Light Snow,340,2012-12-27 03:55:00
10:02 PM,-7.6,-13.0,77,30.29,10.0,NNW,4.6,-,N/A,,Overcast,340,2012-12-27 04:02:00
10:06 PM,-7.6,-11.2,84,30.29,10.0,NNW,4.6,-,N/A,,Overcast,340,2012-12-27 04:06:00
10:08 PM,-7.6,-11.2,84,30.29,10.0,NNW,4.6,-,N/A,,Overcast,340,2012-12-27 04:08:00
10:16 PM,-7.6,-11.2,84,30.29,10.0,North,4.6,-,N/A,,Overcast,350,2012-12-27 04:16:00
10:19 PM,-7.6,-11.2,84,30.28,10.0,North,4.6,-,N/A,Snow,Light Snow,350,2012-12-27 04:19:00
10:35 PM,-7.6,-11.2,84,30.28,10.0,North,3.5,-,N/A,Snow,Light Snow,350,2012-12-27 04:35:00
10:55 PM,-6.5,-11.2,80,30.28,10.0,North,3.5,-,0.00,,Overcast,350,2012-12-27 04:55:00
10:58 PM,-5.8,-11.2,77,30.28,10.0,NNW,3.5,-,N/A,,Overcast,340,2012-12-27 04:58:00
11:04 PM,-5.8,-11.2,77,30.28,10.0,North,3.5,-,N/A,,Overcast,350,2012-12-27 05:04:00
11:09 PM,-5.8,-11.2,77,30.28,10.0,North,3.5,-,N/A,,Overcast,360,2012-12-27 05:09:00
11:12 PM,-5.8,-11.2,77,30.28,10.0,North,3.5,-,N/A,Snow,Light Snow,360,2012-12-27 05:12:00
11:13 PM,-5.8,-11.2,77,30.28,10.0,North,3.5,-,N/A,Snow,Light Snow,360,2012-12-27 05:13:00
11:43 PM,-5.8,-11.2,77,30.27,10.0,North,3.5,-,N/A,,Overcast,10,2012-12-27 05:43:00
11:47 PM,-5.8,-11.2,77,30.27,10.0,North,3.5,-,N/A,,Overcast,360,2012-12-27 05:47:00
11:55 PM,-5.8,-10.5,80,30.27,10.0,North,4.6,-,0.00,Snow,Light Snow,350,2012-12-27 05:55:00
11:57 PM,-5.8,-9.4,84,30.27,10.0,North,4.6,-,N/A,Snow,Light Snow,360,2012-12-27 05:57:00
11:59 PM,-5.8,-9.4,84,30.27,10.0,North,4.6,-,N/A,Snow,Light Snow,350,2012-12-27 05:59:00